Location: Moscow
(55.7500°N, 37.5830°E)
Time: 11:36:01
(UTC+03:00)

Vanguard 3 - Pass Details

Date: 07 December 2021
Orbit: 508 x 3260 km, 33.3° (Epoch: 19 January)

Event Time Altitude Azimuth Distance (km) Brightness Sun altitude
Rises 03:38:56 0° 224° (SW) 6,884 - -40.9°
Reaches altitude 10° 03:44:13 10° 215° (SW) 6,065 - -40.3°
Exits shadow 03:52:31 25° 193° (SSW) 5,040 10.8 -39.2°
Maximum altitude 03:59:34 30° 164° (SSE) 4,619 10.8 -38.2°
Drops below altitude 10° 04:13:28 10° 113° (ESE) 5,497 11.9 -36.3°
Sets 04:17:55 0° 103° (ESE) 6,178 12.5 -35.7°
